Content
SEND FEEDBACK

Daily
Averages
Monthly
Summary
Guatemala

AMATITLAN, GUATEMALA


Home > Central America > Guatemala
Elevation: 4908 feet     Latitude: 14 30N     Longitude: 090 36W

WEATHER
 
SELECT A DAY
Number of Records: 154,085;   Date Range: 6/30/96 - 9/21/14
 
SHARE

PRINT THIS DATA

[ ← Previous Day ]
WEATHER ALMANAC - JANUARY 31, 2013
[ Next Day → ]
[ °C ]   °F
Weather ElementAverageHighLow
Temperature64.1 °F75.2 °F (2:00 pm) (10:35 am)
Dewpoint52.3 °F59 °F (6:00 am) (7:00 pm)
Humidity65.5 %88 % (3:00 am)38 % (12:00 pm)
Barometer29.04 in30.33 in (9:00 am) (7:00 pm)
Wind Speed20.7 mph27.6 mph (9:00 pm)
Wind Gust32.2 mph (10:35 am)
Weather ElementAverage
Visibility7.8 mi
Wind DirectionWNW (290.4 °)

Weather ElementTotal
Precipitation---
Heating Degree Days27.4 (Base 65)
Averaged from 25 records on January 31, 2013
WEATHER CONDITIONS BREAKOUT
WIND DIRECTION BREAKOUT
WEATHER BY HOUR - JANUARY 31, 2013
[ °C ]   °F
Local TimeTemperatureDewpointHumidityBarometerVisibilityWind DirectionWind SpeedGust SpeedPrecipitationEventsConditions
1:00 AM62.6 °F57.2 °F82 %30.27 inNorth (360°)4.6 mphClear
2:00 AM60.8 °F55.4 °F82 %30.24 inNorth (360°)6.9 mphClear
3:00 AM60.8 °F57.2 °F88 %30.21 in6.2 miNorth (360°)9.2 mphPartly Cloudy
4:00 AM60.8 °F57.2 °F88 %30.24 in6.2 miNorth (360°)13.8 mphMostly Cloudy
6:00 AM62.0 °F58.0 °F84 %29.93 in25.0 miNorth16.1 mphMostly Cloudy
6:00 AM62.6 °F59.0 °F88 %30.24 in6.2 miNorth (360°)16.1 mphMostly Cloudy
7:00 AM62.6 °F57.2 °F82 %30.27 in6.2 miNorth (360°)16.1 mphMostly Cloudy
8:00 AM64.4 °F57.2 °F77 %30.30 in6.2 miNNE (20°)20.7 mphMostly Cloudy
9:00 AM68.0 °F55.4 °F64 %30.33 in6.2 miNorth (360°)23.0 mphMostly Cloudy
10:00 AM69.8 °F53.6 °F56 %30.33 in6.2 miNorth (360°)23.0 mphScattered Clouds
10:35 AM0.0 °F0.0 °F6.2 miNorth (360°)20.7 mph32.2 mphMostly Cloudy
11:00 AM69.8 °F53.6 °F56 %30.33 in6.2 miNorth (360°)25.3 mphMostly Cloudy
12:00 PM73.4 °F53.6 °F50 %30.30 in6.2 miNorth (360°)25.3 mphScattered Clouds
12:00 PM73.0 °F53.0 °F38 %29.97 in25.0 miNorth25.3 mphPartly Cloudy
1:00 PM73.4 °F51.8 °F47 %30.27 in6.2 miNorth (360°)25.3 mphScattered Clouds
2:00 PM75.2 °F53.6 °F47 %30.24 in6.2 miNorth (360°)23.0 mphScattered Clouds
3:00 PM69.8 °F55.4 °F60 %30.27 in6.2 miNorth (360°)20.7 mph32.2 mphScattered Clouds
4:00 PM73.4 °F53.6 °F50 %30.24 in6.2 miNNE (20°)23.0 mphScattered Clouds
5:00 PM71.6 °F53.6 °F53 %30.24 in6.2 miNNE (20°)23.0 mphPartly Cloudy
6:00 PM68.0 °F50.0 °F52 %30.24 in6.2 miNorth (360°)23.0 mphPartly Cloudy
7:00 PM66.2 °F51.8 °F60 %30.27 in6.2 miNorth (360°)25.3 mphScattered Clouds
8:00 PM64.4 °F50.0 °F59 %30.30 in6.2 miNorth (360°)25.3 mphPartly Cloudy
9:00 PM64.4 °F51.8 °F64 %30.33 in6.2 miNorth (360°)27.6 mphPartly Cloudy
10:00 PM62.6 °F51.8 °F68 %30.33 in6.2 miNorth (360°)27.6 mphPartly Cloudy
11:00 PM62.6 °F55.4 °F77 %30.33 in6.2 miNorth (360°)27.6 mphScattered Clouds
Hourly data recorded from MGGT, located miles away from Amatitlan, Guatemala







STORIES FROM OUR PARTNERS